FW1494 Weather Reports


Display with metric or nautical units.
time (UTC)temp
F
wind
direction
speed
MPH
gust
MPH
rain 1hr
in
rain 24hr
in
rain mn
in
humidity
%
barometer
mb
20181016171213 53 225 6.0 12.0 0.00 0.00 0.00 75 1024.9
20181016170711 53 256 5.0 11.0 0.00 0.00 0.00 75 1024.9
20181016170209 53 239 5.0 8.0 0.00 0.00 0.00 75 1025.0
20181016165707 53 207 5.0 8.0 0.00 0.00 0.00 74 1025.0
20181016165204 53 254 6.0 9.0 0.00 0.00 0.00 74 1025.0
20181016164703 53 213 6.0 9.0 0.00 0.00 0.00 74 1025.1
20181016164201 53 236 7.0 12.0 0.00 0.00 0.00 73 1025.1
20181016163658 53 220 8.0 14.0 0.00 0.00 0.00 73 1025.1
20181016163159 53 222 7.0 14.0 0.00 0.00 0.00 74 1025.0
20181016162657 53 204 7.0 12.0 0.00 0.00 0.00 73 1025.1
20181016162152 53 248 6.0 10.0 0.00 0.00 0.00 73 1025.1
20181016161651 53 234 7.0 12.0 0.00 0.00 0.00 74 1025.1
20181016161151 53 217 7.0 12.0 0.00 0.00 0.00 73 1025.1
20181016160650 53 261 7.0 12.0 0.00 0.00 0.00 73 1025.2
20181016160149 53 213 6.0 10.0 0.00 0.00 0.00 73 1025.2
20181016155649 53 235 6.0 10.0 0.00 0.00 0.00 73 1025.3
20181016155148 53 215 7.0 13.0 0.00 0.00 0.00 73 1025.3
20181016154648 53 227 8.0 13.0 0.00 0.00 0.00 72 1025.4
20181016154147 53 238 9.0 13.0 0.00 0.00 0.00 72 1025.4
20181016153645 53 190 10.0 21.0 0.00 0.00 0.00 72 1025.5
20181016153145 53 205 11.0 21.0 0.00 0.00 0.00 72 1025.6
20181016152642 53 227 9.0 19.0 0.00 0.00 0.00 73 1025.8
20181016152142 53 200 7.0 13.0 0.00 0.00 0.00 75 1025.7
20181016151641 53 228 7.0 11.0 0.00 0.00 0.00 75 1025.8
20181016151141 53 209 6.0 11.0 0.00 0.00 0.00 75 1025.8
20181016150639 53 175 6.0 9.0 0.00 0.00 0.00 76 1025.8
20181016150137 52 261 5.0 8.0 0.00 0.00 0.00 76 1025.8
20181016145637 52 223 3.0 8.0 0.00 0.00 0.00 77 1025.9
20181016145136 52 209 3.0 6.0 0.00 0.00 0.00 76 1026.1
20181016144635 52 216 3.0 6.0 0.00 0.00 0.00 76 1026.1
20181016144134 52 204 2.0 6.0 0.00 0.00 0.00 76 1026.1
20181016143634 52 254 2.0 6.0 0.00 0.00 0.00 76 1026.1
20181016143131 52 235 1.0 4.0 0.00 0.00 0.00 75 1026.1
20181016142631 52 234 2.0 4.0 0.00 0.00 0.00 75 1026.3
20181016142128 52 240 2.0 5.0 0.00 0.00 0.00 75 1026.4
20181016141627 52 216 3.0 5.0 0.00 0.00 0.00 74 1026.4
20181016141125 52 250 3.0 6.0 0.00 0.00 0.00 74 1026.3
20181016140623 52 264 2.0 6.0 0.00 0.00 0.00 74 1026.4
20181016140123 52 252 3.0 6.0 0.00 0.00 0.00 73 1026.4
20181016135621 52 257 4.0 7.0 0.00 0.00 0.00 73 1026.5
20181016135121 53 250 5.0 8.0 0.00 0.00 0.00 73 1026.6
20181016134614 52 234 4.0 8.0 0.00 0.00 0.00 73 1026.6
20181016134115 52 238 4.0 13.0 0.00 0.00 0.00 73 1026.6
20181016133614 53 244 6.0 13.0 0.00 0.00 0.00 72 1026.7
20181016133112 53 234 8.0 13.0 0.00 0.00 0.00 72 1026.7
20181016132611 53 217 8.0 13.0 0.00 0.00 0.00 72 1026.7
20181016132106 52 231 7.0 13.0 0.00 0.00 0.00 73 1026.8
20181016131610 52 247 6.0 13.0 0.00 0.00 0.00 73 1026.9
20181016131104 52 248 5.0 9.0 0.00 0.00 0.00 74 1027.0
20181016130607 52 215 5.0 9.0 0.00 0.00 0.00 74 1027.1
20181016130105 52 227 4.0 7.0 0.00 0.00 0.00 74 1027.1
20181016125606 53 240 5.0 9.0 0.00 0.00 0.00 74 1027.2
20181016125058 53 252 7.0 10.0 0.00 0.00 0.00 73 1027.2
20181016124602 53 225 8.0 19.0 0.00 0.00 0.00 73 1027.3
20181016124057 53 220 7.0 19.0 0.00 0.00 0.00 73 1027.4
20181016123557 53 200 7.0 10.0 0.00 0.00 0.00 74 1027.6
20181016123056 53 221 6.0 10.0 0.00 0.00 0.00 75 1027.6
20181016122558 53 200 6.0 10.0 0.00 0.00 0.00 76 1027.7
20181016122051 52 225 5.0 9.0 0.00 0.00 0.00 76 1027.7
20181016121554 52 219 5.0 7.0 0.00 0.00 0.00 76 1027.8
20181016121048 52 244 4.0 6.0 0.00 0.00 0.00 76 1027.8
20181016120548 52 242 4.0 6.0 0.00 0.00 0.00 76 1027.8
20181016120035 53 236 3.0 6.0 0.00 0.00 0.00 76 1027.9
20181016115533 52 221 2.0 6.0 0.00 0.00 0.00 76 1027.9
20181016115032 53 252 2.0 5.0 0.00 0.00 0.00 75 1027.9
20181016114528 53 244 3.0 5.0 0.00 0.00 0.00 74 1027.9
20181016114028 53 263 3.0 6.0 0.00 0.00 0.00 74 1028.0
20181016113525 53 258 2.0 6.0 0.00 0.00 0.00 74 1027.9
20181016113024 53 246 2.0 4.0 0.00 0.00 0.00 74 1028.0
20181016112522 53 244 2.0 4.0 0.00 0.00 0.00 74 1028.0
20181016112014 53 246 2.0 4.0 0.00 0.00 0.00 74 1028.1
20181016111512 53 247 3.0 6.0 0.00 0.00 0.00 74 1028.1
20181016111012 53 243 3.0 6.0 0.00 0.00 0.00 74 1028.1
20181016110513 53 250 3.0 5.0 0.00 0.00 0.00 74 1028.0
20181016110011 53 246 3.0 5.0 0.00 0.00 0.00 74 1028.2
20181016105512 53 238 4.0 9.0 0.00 0.00 0.00 74 1028.2
20181016105012 53 225 4.0 9.0 0.00 0.00 0.00 74 1028.2
20181016104512 53 244 3.0 6.0 0.00 0.00 0.00 75 1028.4
20181016104012 53 243 4.0 7.0 0.00 0.00 0.00 75 1028.4
20181016103512 53 261 4.0 7.0 0.00 0.00 0.00 75 1028.3
20181016103012 53 215 4.0 9.0 0.00 0.00 0.00 74 1028.4
20181016102516 53 251 5.0 9.0 0.00 0.00 0.00 73 1028.5
20181016102010 53 223 6.0 9.0 0.00 0.00 0.00 73 1028.5
20181016101509 53 240 5.0 9.0 0.00 0.00 0.00 73 1028.5
20181016101005 53 271 5.0 7.0 0.00 0.00 0.00 74 1028.5
20181016100504 53 203 5.0 7.0 0.00 0.00 0.00 74 1028.5
20181016100004 53 239 5.0 7.0 0.00 0.00 0.00 74 1028.6
20181016095504 53 257 5.0 8.0 0.00 0.00 0.00 74 1028.6
20181016095006 53 248 4.0 8.0 0.00 0.00 0.00 75 1028.6
20181016094508 53 257 3.0 6.0 0.00 0.00 0.00 75 1028.7
20181016094003 53 241 4.0 6.0 0.00 0.00 0.00 75 1028.7
20181016093503 53 252 5.0 7.0 0.00 0.00 0.00 75 1028.8
20181016092959 53 248 4.0 7.0 0.00 0.00 0.00 75 1028.7
20181016092500 53 257 4.0 8.0 0.00 0.00 0.00 75 1028.8
20181016092000 53 261 4.0 8.0 0.00 0.00 0.00 75 1028.8
20181016091500 53 261 4.0 8.0 0.00 0.00 0.00 75 1028.9
20181016090958 53 243 4.0 8.0 0.00 0.00 0.00 75 1028.9
20181016090458 54 259 4.0 8.0 0.00 0.00 0.00 75 1029.0
20181016085954 54 271 5.0 8.0 0.00 0.00 0.00 75 1029.1
20181016085456 54 243 5.0 8.0 0.00 0.00 0.00 75 1029.2
20181016084952 54 274 4.0 8.0 0.00 0.00 0.00 76 1029.1
20181016084452 54 261 4.0 8.0 0.00 0.00 0.00 76 1029.2
20181016083950 54 257 4.0 7.0 0.00 0.00 0.00 76 1029.2
20181016083452 54 266 4.0 7.0 0.00 0.00 0.00 75 1029.3
20181016082946 54 246 5.0 7.0 0.00 0.00 0.00 75 1029.1
20181016082444 54 261 5.0 8.0 0.00 0.00 0.00 74 1029.2
20181016081942 54 250 4.0 8.0 0.00 0.00 0.00 74 1029.2
20181016081440 54 280 3.0 6.0 0.00 0.00 0.00 74 1029.2
20181016080940 54 252 3.0 6.0 0.00 0.00 0.00 73 1029.2
20181016080438 54 276 6.0 11.0 0.00 0.00 0.00 73 1029.1
20181016075936 54 252 6.0 11.0 0.00 0.00 0.00 72 1029.1
20181016075434 54 250 5.0 9.0 0.00 0.00 0.00 72 1029.1
20181016074932 54 257 5.0 12.0 0.00 0.00 0.00 72 1029.1
20181016074432 54 247 6.0 12.0 0.00 0.00 0.00 72 1029.0
20181016073928 54 225 7.0 12.0 0.00 0.00 0.00 72 1029.1
20181016073427 54 259 6.0 12.0 0.00 0.00 0.00 72 1029.1
20181016072923 54 268 6.0 12.0 0.00 0.00 0.00 73 1029.1
20181016072424 54 257 6.0 12.0 0.00 0.00 0.00 73 1028.9
20181016071922 54 248 6.0 10.0 0.00 0.00 0.00 73 1029.0
20181016071422 54 267 5.0 9.0 0.00 0.00 0.00 73 1028.9
20181016070921 54 252 5.0 9.0 0.00 0.00 0.00 73 1028.8
20181016070419 54 205 6.0 10.0 0.00 0.00 0.00 73 1028.8
20181016065920 54 245 6.0 10.0 0.00 0.00 0.00 72 1028.8
20181016065416 54 261 5.0 10.0 0.00 0.00 0.00 72 1028.7
20181016064915 54 247 5.0 8.0 0.00 0.00 0.00 73 1028.8
20181016064414 55 232 5.0 8.0 0.00 0.00 0.00 72 1028.7
20181016063913 55 239 5.0 9.0 0.00 0.00 0.00 72 1028.7
20181016063413 55 252 6.0 11.0 0.00 0.00 0.00 72 1028.7
20181016062914 55 259 7.0 13.0 0.00 0.00 0.00 72 1028.7
20181016062413 55 215 7.0 13.0 0.00 0.00 0.00 71 1028.7
20181016061913 55 253 7.0 13.0 0.00 0.00 0.00 73 1028.7
20181016061412 55 229 7.0 13.0 0.00 0.00 0.00 73 1028.7
20181016060909 55 263 7.0 13.0 0.00 0.00 0.00 74 1028.6
20181016060411 55 214 7.0 13.0 0.00 0.00 0.00 73 1028.6
20181016055910 55 267 7.0 10.0 0.00 0.00 0.00 73 1028.6
20181016055409 55 241 7.0 13.0 0.00 0.00 0.00 72 1028.7
20181016054907 55 227 7.0 13.0 0.00 0.00 0.00 71 1028.5
20181016054406 55 252 7.0 13.0 0.00 0.00 0.00 72 1028.6
20181016053905 56 229 7.0 13.0 0.00 0.00 0.00 72 1028.6
20181016053404 56 207 7.0 12.0 0.00 0.00 0.00 72 1028.6
20181016052905 56 217 8.0 13.0 0.00 0.00 0.00 72 1028.7
20181016052402 56 236 8.0 13.0 0.00 0.00 0.00 71 1028.7
20181016051900 56 227 7.0 12.0 0.00 0.00 0.00 71 1028.8
20181016051358 56 243 8.0 13.0 0.00 0.00 0.00 72 1028.8
20181016050855 56 219 8.0 14.0 0.00 0.00 0.00 72 1028.7
20181016050356 56 246 9.0 18.0 0.00 0.00 0.00 71 1028.8
20181016045855 56 229 9.0 18.0 0.00 0.00 0.00 69 1028.9
20181016045353 57 240 9.0 18.0 0.00 0.00 0.00 71 1028.7
20181016044853 56 232 9.0 15.0 0.00 0.00 0.00 70 1028.7
20181016044353 56 234 9.0 14.0 0.00 0.00 0.00 70 1028.8
20181016043853 56 223 9.0 15.0 0.00 0.00 0.00 70 1028.7
20181016043353 57 200 9.0 15.0 0.00 0.00 0.00 70 1028.7
20181016042852 57 216 8.0 15.0 0.00 0.00 0.00 70 1028.8
20181016042351 57 215 9.0 14.0 0.00 0.00 0.00 72 1028.7
20181016041852 57 238 9.0 16.0 0.00 0.00 0.00 72 1028.7
20181016041349 57 196 9.0 16.0 0.00 0.00 0.00 72 1028.8
20181016040849 57 248 9.0 15.0 0.00 0.00 0.00 73 1028.8
20181016040350 57 224 10.0 16.0 0.00 0.00 0.00 73 1028.8
20181016035850 57 207 10.0 16.0 0.00 0.00 0.00 73 1028.8
20181016035350 57 237 10.0 16.0 0.00 0.00 0.00 73 1028.8
20181016034850 57 213 9.0 16.0 0.00 0.00 0.00 73 1028.9
20181016034350 57 226 9.0 15.0 0.00 0.00 0.00 74 1029.0
20181016033850 57 226 10.0 19.0 0.00 0.00 0.00 74 1029.0
20181016033347 58 209 10.0 19.0 0.00 0.00 0.00 72 1029.1
20181016032847 58 228 10.0 18.0 0.00 0.00 0.00 72 1029.0
20181016032347 58 211 10.0 16.0 0.00 0.00 0.00 70 1029.1
20181016031848 58 262 9.0 16.0 0.00 0.00 0.00 69 1029.1
20181016031347 58 247 8.0 16.0 0.00 0.00 0.00 71 1029.1
20181016030847 58 241 9.0 16.0 0.00 0.00 0.00 70 1029.1
20181016030350 58 244 10.0 18.0 0.00 0.00 0.00 69 1029.1
20181016025849 58 201 10.0 18.0 0.00 0.00 0.00 69 1029.2
20181016025350 59 205 10.0 18.0 0.00 0.00 0.00 70 1029.2
20181016024835 59 209 9.0 15.0 0.00 0.00 0.00 70 1029.3
20181016024337 59 272 9.0 15.0 0.00 0.00 0.00 70 1029.4
20181016023834 58 242 10.0 20.0 0.00 0.00 0.00 70 1029.4
20181016023315 58 256 10.0 20.0 0.00 0.00 0.00 69 1029.5
20181016022810 59 215 10.0 15.0 0.00 0.00 0.00 67 1029.5
20181016022257 59 281 10.0 15.0 0.00 0.00 0.00 67 1029.5
20181016021751 58 242 10.0 15.0 0.00 0.00 0.00 69 1029.4
20181016021251 58 188 10.0 18.0 0.00 0.00 0.00 68 1029.6
20181016020746 58 248 10.0 18.0 0.00 0.00 0.00 68 1029.7
20181016020247 58 241 10.0 18.0 0.00 0.00 0.00 69 1029.9
20181016015743 58 212 10.0 18.0 0.00 0.00 0.00 67 1029.9
20181016015244 58 260 9.0 18.0 0.00 0.00 0.00 67 1030.1
20181016014739 59 255 9.0 15.0 0.00 0.00 0.00 68 1030.1
20181016014240 58 216 10.0 15.0 0.00 0.00 0.00 69 1030.1
20181016013735 58 217 10.0 18.0 0.00 0.00 0.00 68 1030.2
20181016013228 58 261 11.0 19.0 0.00 0.00 0.00 67 1030.2
20181016012723 58 246 10.0 19.0 0.00 0.00 0.00 67 1030.3
20181016012221 58 225 10.0 15.0 0.00 0.00 0.00 69 1030.3
20181016011719 58 240 10.0 18.0 0.00 0.00 0.00 68 1030.2
20181016011217 59 256 10.0 18.0 0.00 0.00 0.00 68 1030.2
20181016010714 58 222 10.0 16.0 0.00 0.00 0.00 69 1030.2
20181016010215 58 221 10.0 15.0 0.00 0.00 0.00 68 1030.4
20181016005715 58 196 10.0 16.0 0.00 0.00 0.00 67 1030.4
20181016005219 59 192 9.0 16.0 0.00 0.00 0.00 66 1030.4
20181016004715 58 250 9.0 16.0 0.00 0.00 0.00 69 1030.5
20181016004215 58 213 9.0 16.0 0.00 0.00 0.00 68 1030.4
20181016003712 58 240 8.0 15.0 0.00 0.00 0.00 69 1030.6
20181016003212 58 272 9.0 15.0 0.00 0.00 0.00 67 1030.6
20181016002708 58 248 9.0 16.0 0.00 0.00 0.00 68 1030.6
20181016002208 58 242 9.0 16.0 0.00 0.00 0.00 66 1030.6
20181016001703 59 282 8.0 13.0 0.00 0.00 0.00 66 1030.6
20181016001205 58 250 9.0 13.0 0.00 0.00 0.00 68 1030.7
20181016000701 58 254 8.0 13.0 0.00 0.00 0.00 67 1030.8
20181016000201 58 261 7.0 12.0 0.00 0.00 0.00 68 1030.8
20181015235657 58 246 7.0 12.0 0.00 0.00 0.00 70 1030.8
20181015235156 58 219 8.0 12.0 0.00 0.00 0.00 70 1030.9
20181015234653 58 265 8.0 12.0 0.00 0.00 0.00 71 1031.0
20181015234152 57 252 8.0 15.0 0.00 0.00 0.00 70 1030.9
20181015233647 57 192 9.0 15.0 0.00 0.00 0.00 70 1030.9
20181015233150 57 224 10.0 15.0 0.00 0.00 0.00 69 1031.0
20181015232644 57 217 9.0 15.0 0.00 0.00 0.00 70 1031.0
20181015232144 57 279 9.0 14.0 0.00 0.00 0.00 71 1031.1
20181015231639 57 248 9.0 14.0 0.00 0.00 0.00 71 1031.2
20181015231142 57 265 10.0 16.0 0.00 0.00 0.00 72 1031.3
20181015230635 57 209 10.0 18.0 0.00 0.00 0.00 71 1031.4
20181015230136 57 246 10.0 18.0 0.00 0.00 0.00 70 1031.6
20181015225633 58 232 10.0 15.0 0.00 0.00 0.00 70 1031.6
20181015225132 58 178 10.0 16.0 0.00 0.00 0.00 71 1031.6
20181015224630 58 223 9.0 16.0 0.00 0.00 0.00 68 1031.6
20181015224121 58 220 8.0 14.0 0.00 0.00 0.00 69 1031.5
20181015223617 58 228 8.0 13.0 0.00 0.00 0.00 69 1031.7
20181015223116 58 271 9.0 12.0 0.00 0.00 0.00 69 1031.6
20181015222611 57 225 8.0 13.0 0.00 0.00 0.00 70 1031.6
20181015222114 57 221 8.0 13.0 0.00 0.00 0.00 70 1031.7
20181015221609 57 198 8.0 13.0 0.00 0.00 0.00 71 1031.7
20181015221102 57 188 8.0 13.0 0.00 0.00 0.00 72 1031.7
20181015220555 58 248 8.0 11.0 0.00 0.00 0.00 71 1031.8
20181015220058 58 229 7.0 14.0 0.00 0.00 0.00 72 1031.6
20181015215551 58 220 6.0 13.0 0.00 0.00 0.00 72 1031.6
20181015215056 57 207 7.0 11.0 0.00 0.00 0.00 71 1031.6
20181015214548 57 254 8.0 12.0 0.00 0.00 0.00 71 1031.7
20181015214049 57 232 8.0 14.0 0.00 0.00 0.00 71 1031.8
20181015213545 57 236 8.0 14.0 0.00 0.00 0.00 72 1031.8
20181015213041 57 219 6.0 11.0 0.00 0.00 0.00 76 1031.9
20181015212541 57 247 6.0 10.0 0.00 0.00 0.00 76 1031.7
20181015212045 57 214 6.0 11.0 0.00 0.00 0.00 76 1031.8
20181015211539 57 248 6.0 11.0 0.00 0.00 0.00 77 1031.8
20181015211040 56 238 6.0 11.0 0.00 0.00 0.00 79 1031.8
20181015210539 56 242 6.0 11.0 0.00 0.00 0.00 78 1031.9
20181015210037 56 222 6.0 10.0 0.00 0.00 0.00 79 1031.7
20181015205537 56 229 6.0 10.0 0.00 0.00 0.00 80 1031.8
20181015205037 56 241 6.0 11.0 0.00 0.00 0.00 81 1031.6
20181015204535 56 238 5.0 11.0 0.00 0.00 0.00 82 1031.5
20181015204034 55 223 5.0 8.0 0.00 0.00 0.00 84 1031.7
20181015203532 55 248 5.0 7.0 0.00 0.00 0.00 86 1031.6
20181015203029 54 229 4.0 7.0 0.00 0.00 0.00 88 1031.6
20181015202527 54 230 3.0 6.0 0.00 0.00 0.00 91 1031.6
20181015202030 53 210 3.0 5.0 0.00 0.00 0.00 92 1031.7
20181015201529 53 256 3.0 5.0 0.00 0.00 0.00 92 1031.8
20181015201027 52 220 2.0 5.0 0.00 0.00 0.00 93 1031.8
20181015200524 52 216 2.0 5.0 0.00 0.00 0.00 93 1031.8
20181015200022 51 214 2.0 5.0 0.00 0.00 0.00 93 1031.8
20181015195523 51 239 2.0 4.0 0.00 0.00 0.00 94 1031.9
20181015195021 50 244 2.0 4.0 0.00 0.00 0.00 93 1031.9
20181015194519 50 237 2.0 4.0 0.00 0.00 0.00 93 1031.8
20181015194018 49 227 2.0 4.0 0.00 0.00 0.00 93 1031.9
20181015193515 49 218 1.0 4.0 0.00 0.00 0.00 93 1031.9
20181015193014 49 238 1.0 2.0 0.00 0.00 0.00 94 1031.9
20181015192511 49 238 0.0 2.0 0.00 0.00 0.00 93 1031.9
20181015192012 48 238 0.0 2.0 0.00 0.00 0.00 94 1031.9
20181015191507 48 238 0.0 2.0 0.00 0.00 0.00 94 1031.8
20181015191008 48 238 1.0 2.0 0.00 0.00 0.00 94 1031.8
20181015190503 47 238 0.0 1.0 0.00 0.00 0.00 94 1031.9
20181015190007 47 238 0.0 1.0 0.00 0.00 0.00 93 1031.9
20181015185503 47 238 0.0 1.0 0.00 0.00 0.00 93 1031.9
20181015185004 46 238 0.0 1.0 0.00 0.00 0.00 93 1031.9
20181015184459 46 238 0.0 1.0 0.00 0.00 0.00 93 1031.8
20181015183959 46 238 0.0 0.0 0.00 0.00 0.00 93 1031.7
20181015183454 46 238 0.0 0.0 0.00 0.00 0.00 93 1031.7
20181015182958 46 238 0.0 1.0 0.00 0.00 0.00 93 1031.6
20181015182455 46 238 0.0 1.0 0.00 0.00 0.00 94 1031.7
20181015181956 46 238 0.0 1.0 0.00 0.00 0.00 94 1031.7
20181015181451 45 238 0.0 1.0 0.00 0.00 0.00 94 1031.8
20181015180955 44 238 0.0 1.0 0.00 0.00 0.00 93 1031.9
20181015180449 44 238 0.0 1.0 0.00 0.00 0.00 93 1031.9
20181015175950 44 238 0.0 1.0 0.00 0.00 0.00 93 1032.2
20181015175447 44 238 0.0 1.0 0.00 0.00 0.00 93 1032.0
20181015174948 44 238 0.0 1.0 0.00 0.00 0.00 93 1032.0
20181015174445 44 238 1.0 2.0 0.00 0.00 0.00 93 1032.0
20181015173948 44 238 0.0 2.0 0.00 0.00 0.00 93 1031.9
20181015173443 44 238 0.0 0.0 0.00 0.00 0.00 93 1031.9
20181015172944 44 238 0.0 0.0 0.00 0.00 0.00 93 1031.9
20181015172440 44 238 0.0 0.0 0.00 0.00 0.00 93 1031.7
20181015171941 44 238 0.0 0.0 0.00 0.00 0.00 93 1031.8